sat.trackr.live / text

‹ back to catalog

ONEWEB-0535

NORAD 54147 · 2022-138AL

PAYLOAD ACTIVE UNKNOWN

§ Identity

Operator
Country
UK
Launch date
2022-10-22
Launch site
SRILR
Launch vehicle
Mass (kg)
RCS (m²)

Purposes: comms

External: N2YO · Heavens-Above · Gunter

§ Orbital elements

Epoch: 2026-05-24T22:55:27.863040Z

Period
109.11 min
Inclination
87.9159°
Eccentricity
0.0002091
Mean motion
13.19726133 rev/d
Perigee alt
1,184.2 km
Apogee alt
1,187.3 km
Semi-major
7,563.9 km
B*
1.5436e-5
RAAN
309.5883°
Arg perigee
100.1648°
Mean anomaly
259.9720°
Rev number
17,377

§ Raw data

ONEWEB-05351 54147U 22138AL  26144.95518360  .00000019  00000+0  15436-4 0  99932 54147  87.9159 309.5883 0002091 100.1648 259.9720 13.19726133173775

JSON: /api/v1/satellites/54147 · /tle

For live sub-satellite position, see the globe view (requires WebGL).

§ Visibility from observer

Set your observer location to see the next 7 days of passes ≥ 10°. The values pass through the URL so the page stays shareable.

No JS? Fill the form by hand. The geolocation button needs JavaScript.